This is the latest recevied weather packets stored in our database for station/object W8LMG. If no packets are shown the sender has not sent any weather packets the latest 10 day(s).
| Time | Temp. | Humidity | Pressure | Rain* | Wind** | Luminosity | Snow |
|---|---|---|---|---|---|---|---|
| 1777050573 | 23.89° C | 38% | 1012.2 hPa | 0 mm | - | 158 W/m² | - |
| 1777050272 | 23.89° C | 40% | 1012.4 hPa | 0 mm | - | 158 W/m² | - |
| 1777049968 | 24.44° C | 38% | 1012.3 hPa | 0 mm | - | 147 W/m² | - |
| 1777049662 | 24.44° C | 35% | 1012.3 hPa | 0 mm | - | 483 W/m² | - |
| 1777049360 | 23.89° C | 38% | 1012.5 hPa | 0 mm | - | 222 W/m² | - |
| 1777049056 | 24.44° C | 39% | 1012.4 hPa | 0 mm | - | 361 W/m² | - |
| 1777048753 | 24.44° C | 37% | 1012.3 hPa | 0 mm | - | 207 W/m² | - |
| 1777048452 | 25° C | 35% | 1012.5 hPa | 0 mm | - | 386 W/m² | - |
| 1777048152 | 24.44° C | 39% | 1012.4 hPa | 0 mm | - | 616 W/m² | - |
| 1777047848 | 24.44° C | 36% | 1012.6 hPa | 0 mm | - | 198 W/m² | - |
| 1777047544 | 24.44° C | 36% | 1012.6 hPa | 0 mm | - | 474 W/m² | - |
| 1777047239 | 24.44° C | 35% | 1012.6 hPa | 0 mm | - | 476 W/m² | - |
| 1777046936 | 23.89° C | 37% | 1012.6 hPa | 0 mm | - | 134 W/m² | - |
| 1777046632 | 23.89° C | 37% | 1012.5 hPa | 0 mm | - | 189 W/m² | - |
| 1777046327 | 23.89° C | 37% | 1013 hPa | 0 mm | - | 348 W/m² | - |
| 1777046023 | 23.89° C | 39% | 1012.7 hPa | 0 mm | - | 377 W/m² | - |
| 1777045720 | 23.33° C | 39% | 1012.7 hPa | 0 mm | - | 349 W/m² | - |
| 1777045416 | 23.89° C | 41% | 1012.8 hPa | 0 mm | - | 506 W/m² | - |
| 1777045111 | 23.89° C | 40% | 1012.9 hPa | 0 mm | - | 493 W/m² | - |
| 1777044807 | 23.33° C | 44% | 1012.8 hPa | 0 mm | - | 577 W/m² | - |
| 1777044503 | 23.33° C | 39% | 1012.8 hPa | 0 mm | - | 172 W/m² | - |
| 1777044200 | 23.33° C | 42% | 1013 hPa | 0 mm | - | 643 W/m² | - |
| 1777043896 | 23.33° C | 45% | 1012.8 hPa | 0 mm | - | 449 W/m² | - |
| 1777043593 | 22.78° C | 45% | 1013.1 hPa | 0 mm | - | 322 W/m² | - |
| 1777043289 | 22.22° C | 50% | 1013 hPa | 0 mm | - | 285 W/m² | - |
* Rain latest hour (hover to see other rain measurements)
** Current wind speed in m/s (hover to see current wind gust speed)